SL-16 DEB, 29100

Orbit data source: Space-Track

SL-16 DEB, 29100 is space debris in LEO originally from a launch on Fri, 26 Mar 1993 UTC launched from the Tyuratam Missile And Space Complex (TTMTR). Debris objects in space refer to the collection of defunct objects orbiting the Earth. Examples of debris include non-operational satellites, rocket bodies, and fragments generated from explosions, collisions, or faulty payload assembly.

Loading next visibility...
Identifier
29100, 1993-016AP
Orbit
LEO
Country
Flag of CISCIS
Related business
Manufacturer
Unknown
Mission
Spacecraft
Bus & Motor
Unknown
Mass
Unknown
Launch date (UTC)
1993-03-26 (33 years ago)
Launch vehicle
Unknown
Launch site
Tyuratam Missile And Space Complex (TTMTR)
Object type
Payload
Rocket body
Debris
Shape & HBR
Unknown shape, 0.1 m
Radar Cross Section
Small (<0.1 m²)

Expand to show TLE details & history
Last TLE update: 11 hours ago

TLE from 11 hours ago
0 SL-16 DEB
1 29100U 93016AP  25294.43009975  .00001386  00000-0  76836-3 0  9991
2 29100  70.7317 218.8149 0069868  66.5385 294.3059 14.11833450197719
Epoch: 2025-10-21T10:19Z
TLE epoch observation values (Epoch: 2025-10-21T10:19:20.618Z)
Latitude
0.00007°
Longitude
33.86084°
Altitude
834.979 km
Speed
7.446 km/s
True Right ascension
14h 35m 15s
True Declination
0° 00' 00"
Sunlit
Object was in daylight at epoch
Visualization orbit readout
Latitude
Unknown
Longitude
Unknown
Altitude
Unknown
Speed
Unknown
Apparent Right ascension
Unknown
Apparent Declination
Unknown
Sunlit
N/A
Visualization observer readout
Local Sidereal Time
16:18:54
Azimuth
Unknown
Elevation
Unknown
Doppler factor
Unknown
Orbital elements
Apogee altitude
901.568 km
Perigee altitude
800.55 km
Semi-major axis
7,229.196 km
Eccentricity
0.00699
Inclination
70.7317°
RAAN
218.8149°
Arg. of periapsis
66.5385°
True anomaly
293.57363°
Mean anomaly
294.3059°
Eccentric anomaly
293.94002°
Mean motion
3.53109 °/min
Orbital period
101.95 mins
BSTAR
0.00076836
Loading maneuver chart data...
Computing Atmospheric mass density...
Loading historical data...
Loading historical data...
Loading historical data...
Loading historical data...
Loading historical data...
Loading historical data...
Loading historical data...

Documentation

Showing up to 5 results
|